User: anonymous   Login
Location: Stockholm
(59.3293°N, 18.0686°E)
Time: 04:24:01
(UTC+01:00)
Language:

LightSail 2 - Orbit

View from above orbital plane
View from above orbital plane
View from above satellite
View from above satellite

Ground track
Ground track

The orbit data is extracted from the following two-line orbital elements,

1 44420U 19036AC  19348.63354430  .00004387  00000-0  97016-3 0  9994
2 44420  24.0085 200.2772 0024139 259.7745 100.0014 14.53891500 23224
Epoch (UTC): 14 December 2019 15:12:18
Eccentricity: 0.0024139
inclination: 24.0085°
perigee height: 696 km
apogee height: 730 km
right ascension of ascending node: 200.2772°
argument of perigee: 259.7745°
revolutions per day: 14.53891500
mean anomaly at epoch: 100.0014°
orbit number at epoch: 2322

The dashed part of the orbit path shows where the satellite is in the earth's shadow,  

DLR